• în Republica Moldova
  • Lista ţărilor
  • Pe 7 zile
  • Temperatura apei
  • Hartă satelitară
  • Meteo pe hartă
  • Widget-uri
  • user-avatar
    Intrare

    Meteo pe oră la Ciudad Bolívar

    Astăzi, 18 Martie, Luni

    Timp Temperatura Precipitaţii Vânt Presiune Umiditate
    00:00 +29°C° 0 mm 6 m/s 753 mmHg 60%
    01:00 +28°C° 0 mm 6 m/s 753 mmHg 64%
    02:00 +27°C° 0 mm 6 m/s 753 mmHg 68%
    03:00 +27°C° 0 mm 5 m/s 753 mmHg 70%
    04:00 +27°C° 0 mm 5 m/s 753 mmHg 73%
    05:00 +26°C° 0 mm 5 m/s 753 mmHg 75%
    06:00 +27°C° 0 mm 5 m/s 753 mmHg 72%
    07:00 +27°C° 0 mm 5 m/s 754 mmHg 69%
    08:00 +28°C° 0 mm 5 m/s 754 mmHg 66%
    09:00 +30°C° 0 mm 5 m/s 754 mmHg 57%
    10:00 +34°C° 0 mm 5 m/s 754 mmHg 48%
    11:00 +36°C° 0 mm 5 m/s 754 mmHg 39%
    12:00 +37°C° 0 mm 5 m/s 753 mmHg 35%
    13:00 +40°C° 0 mm 6 m/s 752 mmHg 31%
    14:00 +41°C° 0 mm 6 m/s 751 mmHg 28%
    15:00 +41°C° 0 mm 6 m/s 750 mmHg 28%
    16:00 +40°C° 0 mm 6 m/s 750 mmHg 29%
    17:00 +40°C° 0 mm 7 m/s 749 mmHg 30%
    18:00 +38°C° 0 mm 7 m/s 750 mmHg 34%
    19:00 +36°C° 0 mm 7 m/s 750 mmHg 38%
    20:00 +34°C° 0 mm 7 m/s 751 mmHg 43%
    21:00 +33°C° 0 mm 7 m/s 751 mmHg 47%
    22:00 +32°C° 0 mm 7 m/s 752 mmHg 51%
    23:00 +30°C° 0 mm 7 m/s 753 mmHg 55%

    Mâine, 19 Martie, Marţi

    Timp Temperatura Precipitaţii Vânt Presiune Umiditate
    00:00 +29°C° 0 mm 7 m/s 752 mmHg 59%
    01:00 +28°C° 0 mm 6 m/s 752 mmHg 63%
    02:00 +27°C° 0 mm 6 m/s 752 mmHg 66%
    03:00 +27°C° 0 mm 6 m/s 752 mmHg 69%
    04:00 +27°C° 0 mm 5 m/s 752 mmHg 71%
    05:00 +26°C° 0 mm 5 m/s 752 mmHg 74%
    06:00 +27°C° 0 mm 5 m/s 753 mmHg 71%
    07:00 +27°C° 0 mm 5 m/s 753 mmHg 69%
    08:00 +28°C° 0 mm 6 m/s 754 mmHg 66%
    09:00 +30°C° 0 mm 5 m/s 754 mmHg 59%
    10:00 +32°C° 0 mm 5 m/s 754 mmHg 51%
    11:00 +34°C° 0 mm 5 m/s 754 mmHg 44%
    12:00 +36°C° 0 mm 5 m/s 753 mmHg 38%
    13:00 +39°C° 0 mm 5 m/s 752 mmHg 33%
    14:00 +41°C° 0 mm 5 m/s 751 mmHg 28%
    15:00 +40°C° 0 mm 6 m/s 750 mmHg 29%
    16:00 +40°C° 0 mm 6 m/s 750 mmHg 30%
    17:00 +39°C° 0 mm 7 m/s 749 mmHg 32%
    18:00 +38°C° 0 mm 7 m/s 750 mmHg 37%
    19:00 +35°C° 0 mm 7 m/s 750 mmHg 42%
    20:00 +33°C° 0 mm 7 m/s 751 mmHg 47%
    21:00 +32°C° 0 mm 7 m/s 751 mmHg 50%
    22:00 +32°C° 0 mm 7 m/s 752 mmHg 53%
    23:00 +30°C° 0 mm 7 m/s 752 mmHg 56%

    Poimâine, 20 Martie, Miercuri

    Timp Temperatura Precipitaţii Vânt Presiune Umiditate
    00:00 +29°C° 0 mm 6 m/s 752 mmHg 59%
    01:00 +28°C° 0 mm 6 m/s 752 mmHg 62%
    02:00 +27°C° 0 mm 5 m/s 751 mmHg 65%
    03:00 +27°C° 0 mm 5 m/s 751 mmHg 67%
    04:00 +27°C° 0 mm 5 m/s 751 mmHg 69%
    05:00 +26°C° 0 mm 4 m/s 752 mmHg 71%
    06:00 +27°C° 0 mm 5 m/s 752 mmHg 69%
    07:00 +27°C° 0 mm 5 m/s 753 mmHg 67%
    08:00 +28°C° 0 mm 5 m/s 753 mmHg 64%
    09:00 +30°C° 0 mm 5 m/s 753 mmHg 56%
    10:00 +33°C° 0 mm 5 m/s 754 mmHg 48%
    11:00 +35°C° 0 mm 5 m/s 754 mmHg 40%
    12:00 +37°C° 0 mm 5 m/s 752 mmHg 35%
    13:00 +39°C° 0 mm 5 m/s 751 mmHg 30%
    14:00 +41°C° 0 mm 5 m/s 750 mmHg 25%
    15:00 +41°C° 0 mm 5 m/s 749 mmHg 26%
    16:00 +40°C° 0 mm 6 m/s 748 mmHg 27%
    17:00 +40°C° 0 mm 6 m/s 748 mmHg 28%
    18:00 +39°C° 0 mm 6 m/s 749 mmHg 32%
    19:00 +36°C° 0 mm 6 m/s 749 mmHg 37%
    20:00 +35°C° 0 mm 6 m/s 750 mmHg 41%
    21:00 +33°C° 0 mm 7 m/s 751 mmHg 45%
    22:00 +32°C° 0 mm 7 m/s 751 mmHg 50%
    23:00 +30°C° 0 mm 7 m/s 752 mmHg 54%

    21 Martie, Joi

    Timp Temperatura Precipitaţii Vânt Presiune Umiditate
    00:00 +29°C° 0 mm 7 m/s 752 mmHg 58%
    01:00 +28°C° 0 mm 6 m/s 751 mmHg 62%
    02:00 +27°C° 0 mm 6 m/s 751 mmHg 67%
    03:00 +27°C° 0 mm 5 m/s 751 mmHg 69%
    04:00 +27°C° 0 mm 5 m/s 751 mmHg 71%
    05:00 +26°C° 0 mm 5 m/s 752 mmHg 73%
    06:00 +27°C° 0 mm 5 m/s 752 mmHg 70%
    07:00 +28°C° 0 mm 5 m/s 753 mmHg 67%
    08:00 +28°C° 0 mm 5 m/s 753 mmHg 65%
    09:00 +30°C° 0 mm 5 m/s 753 mmHg 57%
    10:00 +33°C° 0 mm 5 m/s 753 mmHg 49%
    11:00 +35°C° 0 mm 5 m/s 753 mmHg 42%
    12:00 +36°C° 0 mm 5 m/s 752 mmHg 37%
    13:00 +39°C° 0 mm 5 m/s 751 mmHg 32%
    14:00 +40°C° 0 mm 5 m/s 749 mmHg 28%
    15:00 +40°C° 0 mm 5 m/s 749 mmHg 29%
    16:00 +40°C° 0 mm 6 m/s 748 mmHg 30%
    17:00 +40°C° 0 mm 6 m/s 748 mmHg 31%
    18:00 +38°C° 0 mm 6 m/s 749 mmHg 35%
    19:00 +36°C° 0 mm 6 m/s 749 mmHg 40%
    20:00 +34°C° 0 mm 6 m/s 750 mmHg 44%
    21:00 +33°C° 0 mm 7 m/s 751 mmHg 48%
    22:00 +32°C° 0 mm 7 m/s 751 mmHg 51%
    23:00 +30°C° 0 mm 7 m/s 752 mmHg 55%

    22 Martie, Vineri

    Timp Temperatura Precipitaţii Vânt Presiune Umiditate
    00:00 +29°C° 0 mm 7 m/s 752 mmHg 60%
    01:00 +28°C° 0 mm 6 m/s 752 mmHg 64%
    02:00 +27°C° 0 mm 6 m/s 751 mmHg 69%
    03:00 +27°C° 0 mm 5 m/s 752 mmHg 71%
    04:00 +27°C° 0 mm 5 m/s 752 mmHg 74%
    05:00 +26°C° 0 mm 5 m/s 752 mmHg 76%
    06:00 +27°C° 0 mm 5 m/s 753 mmHg 74%
    07:00 +27°C° 0 mm 5 m/s 753 mmHg 71%
    08:00 +28°C° 0 mm 5 m/s 754 mmHg 68%
    09:00 +30°C° 0 mm 4 m/s 754 mmHg 61%
    10:00 +32°C° 0 mm 4 m/s 754 mmHg 55%
    11:00 +34°C° 0 mm 3 m/s 754 mmHg 48%
    12:00 +35°C° 0 mm 3 m/s 752 mmHg 42%
    13:00 +37°C° 0 mm 3 m/s 751 mmHg 36%
    14:00 +39°C° 0 mm 3 m/s 750 mmHg 30%
    15:00 +40°C° 0 mm 4 m/s 749 mmHg 28%
    16:00 +41°C° 0 mm 4 m/s 749 mmHg 26%
    17:00 +41°C° 0 mm 4 m/s 748 mmHg 25%
    18:00 +40°C° 0 mm 5 m/s 749 mmHg 28%
    19:00 +37°C° 0 mm 5 m/s 750 mmHg 32%
    20:00 +36°C° 0 mm 6 m/s 750 mmHg 35%
    21:00 +35°C° 0 mm 6 m/s 751 mmHg 40%
    22:00 +33°C° 0 mm 6 m/s 752 mmHg 46%
    23:00 +32°C° 0 mm 6 m/s 752 mmHg 51%

    23 Martie, Sâmbătă

    Timp Temperatura Precipitaţii Vânt Presiune Umiditate
    00:00 +30°C° 0 mm 6 m/s 752 mmHg 56%
    01:00 +29°C° 0 mm 6 m/s 752 mmHg 60%
    02:00 +28°C° 0 mm 5 m/s 752 mmHg 64%
    03:00 +27°C° 0 mm 5 m/s 752 mmHg 68%
    04:00 +27°C° 0 mm 5 m/s 752 mmHg 71%
    05:00 +27°C° 0 mm 4 m/s 752 mmHg 74%
    06:00 +27°C° 0 mm 4 m/s 753 mmHg 72%
    07:00 +28°C° 0 mm 4 m/s 754 mmHg 70%
    08:00 +28°C° 0 mm 4 m/s 754 mmHg 68%
    09:00 +30°C° 0 mm 4 m/s 754 mmHg 60%
    10:00 +33°C° 0 mm 4 m/s 754 mmHg 53%
    11:00 +35°C° 0 mm 4 m/s 754 mmHg 46%
    12:00 +36°C° 0 mm 4 m/s 753 mmHg 42%
    13:00 +37°C° 0 mm 4 m/s 752 mmHg 39%
    14:00 +38°C° 0 mm 4 m/s 751 mmHg 35%
    15:00 +38°C° 0 mm 4 m/s 750 mmHg 33%
    16:00 +40°C° 0 mm 4 m/s 750 mmHg 31%
    17:00 +40°C° 0 mm 4 m/s 749 mmHg 29%
    18:00 +38°C° 0 mm 4 m/s 750 mmHg 30%
    19:00 +37°C° 0 mm 3 m/s 751 mmHg 32%
    20:00 +35°C° 0 mm 3 m/s 751 mmHg 33%
    21:00 +34°C° 0 mm 4 m/s 752 mmHg 40%
    22:00 +33°C° 0 mm 5 m/s 752 mmHg 46%
    23:00 +32°C° 0 mm 7 m/s 753 mmHg 53%
    Arată mai mult